Temperature
16 16 16 16 16 16 16 16 16 17 17 17 17 17 16 16 16 16 16 16 16 16 16 16 16 16 17 17 17 17 17 17 17 17 17 17 17 17 17 17 18 18 18
17 16 16 16 16 16 16 16 16 16 16 16 16 16 16 16 16 16 16 16 16 16 16 16 16 16 16 17 17 17 17 17 17 17 17 17 17 17 17 17 17 17 18
17 17 16 16 16 16 16 16 16 16 16 16 16 16 16 16 16 16 16 15 16 16 16 16 16 16 16 16 16 16 17 17 17 17 17 17 17 17 17 17 17 17 17
17 16 16 16 16 16 16 16 16 16 16 16 16 16 16 16 16 15 15 15 15 15 15 15 16 16 16 16 16 16 16 16 16 16 17 17 17 17 17 17 17 17 17
16 16 16 16 16 16 16 16 16 16 16 16 16 16 16 16 15 15 15 15 15 15 15 15 15 15 16 16 16 16 16 16 16 16 16 16 16 16 17 17 17 17 17
16 16 16 16 16 16 16 16 16 16 16 16 16 16 15 15 15 15 15 15 15 15 15 15 15 15 15 16 16 16 16 16 16 16 16 16 16 16 16 17 17 17 17
16 16 16 16 16 16 16 16 16 16 16 16 16 16 15 15 15 15 15 15 15 15 14 15 15 15 15 15 15 16 16 16 16 16 16 16 16 16 16 16 16 16 16
16 16 16 16 16 16 16 16 16 16 16 16 16 16 15 15 15 15 15 15 15 15 14 14 14 14 15 15 15 15 15 15 15 15 15 16 16 16 16 16 16 16 16
16 16 16 16 16 16 16 16 16 16 16 16 16 16 16 15 15 15 15 15 15 14 14 14 14 14 14 15 15 15 15 15 15 15 15 15 15 15 15 16 16 16 16
16 16 16 16 16 16 16 16 16 16 16 16 16 16 16 16 16 15 14 14 14 14 14 14 14 14 14 14 15 15 15 15 15 15 15 15 15 15 15 15 15 15 15
16 16 16 16 16 16 16 16 16 16 16 16 16 16 16 16 16 15 15 14 14 14 14 14 14 14 14 14 14 14 14 14 14 15 15 15 15 15 15 15 15 15 15
16 16 16 16 16 16 16 16 16 16 16 16 16 16 16 16 16 15 15 15 14 14 14 14 14 14 14 14 14 14 14 14 14 14 14 14 14 14 14 14 14 14 15
16 16 16 16 16 16 15 15 16 16 16 16 16 16 16 16 16 15 15 15 14 14 14 13 13 13 13 14 13 13 13 13 14 14 14 14 14 14 14 14 14 14 14
16 16 16 16 16 16 15 16 16 15 15 15 15 15 15 15 15 15 15 15 15 14 14 13 13 13 13 13 13 13 13 13 13 13 13 13 13 13 14 14 14 14 14
16 16 16 16 16 16 15 16 15 15 15 15 15 15 15 15 15 15 15 15 15 14 13 13 13 13 13 13 13 13 13 13 13 13 13 13 13 13 13 13 13 13 13
16 16 16 16 16 16 15 15 15 15 15 15 15 15 15 15 15 15 15 15 15 15 14 13 13 13 13 13 13 13 13 13 13 13 13 13 13 13 13 13 13 13 13
16 16 16 16 16 15 15 15 15 15 15 15 15 15 15 15 15 15 15 15 15 14 14 13 13 13 13 13 13 13 13 13 13 13 13 13 13 13 13 13 13 13 13
16 16 16 16 16 16 15 15 15 15 15 15 15 15 15 15 15 14 14 14 14 14 14 13 13 13 13 13 13 13 13 13 13 12 12 12 12 12 12 12 12 12 12
16 16 16 16 16 16 16 15 15 15 15 15 15 15 15 14 14 14 14 14 14 14 13 13 13 12 12 12 13 12 12 12 12 12 12 12 12 12 12 12 12 12 12
16 16 16 16 16 16 16 15 15 15 15 15 15 15 15 14 14 14 14 14 14 13 13 13 12 12 12 12 12 12 12 12 12 12 12 12 11 11 11 11 11 11 11
16 16 16 16 16 16 16 16 15 15 15 15 15 15 14 14 14 14 14 14 13 13 13 13 12 12 12 12 12 12 12 12 12 11 11 11 11 11 11 11 11 11 11
16 16 16 16 16 16 16 16 15 15 15 15 15 14 14 14 14 14 14 14 13 13 13 13 12 12 12 12 12 12 11 11 11 11 11 11 11 11 10 10 10 10 10
16 16 16 16 16 16 16 15 15 15 15 15 14 14 14 14 14 14 14 13 13 13 13 13 12 12 12 12 12 12 11 11 11 11 11 11 10 10 10 10 10 10 10
16 16 16 16 16 16 15 15 15 15 15 14 14 14 14 14 14 14 13 13 13 13 13 13 13 12 12 12 12 11 11 11 11 11 10 10 10 10 10 10 10 9 9
16 16 16 16 16 16 15 15 15 15 15 15 14 14 14 14 14 13 13 13 13 13 13 12 12 12 12 12 12 11 11 11 11 10 10 10 10 10 10 10 9 9 9
16 16 16 16 16 15 15 15 15 14 14 14 14 14 14 14 14 13 13 13 13 13 12 12 12 12 12 11 11 11 11 10 10 10 10 9 9 9 9 9 9 9 8
Wind_Speed
2 1 3 3 3 3 1 0 2 4 4 6 7 7 7 8 12 12 11 13 13 12 12 12 12 12 12 12 12 12 11 11 11 11 11 11 10 10 10 10 11 10 9
2 2 2 3 3 3 3 3 5 4 4 5 5 7 8 9 10 12 11 11 13 13 13 13 13 13 12 12 11 11 11 11 11 12 12 12 11 11 11 11 11 10 10
5 3 2 2 3 4 5 5 5 4 4 5 5 6 7 7 8 10 10 9 9 11 12 13 13 14 14 13 12 12 12 12 11 11 11 11 11 11 11 11 11 11 10
9 5 3 2 5 6 4 3 4 5 5 5 4 5 5 5 7 9 8 8 8 8 10 12 13 14 15 14 14 13 13 13 12 12 11 11 11 11 11 11 11 11 10
8 6 2 3 6 4 3 3 4 4 4 4 4 4 4 4 5 8 7 8 8 8 8 10 13 14 14 15 15 15 14 13 12 13 12 11 11 11 11 11 10 10 10
7 4 2 4 6 4 4 4 4 3 3 3 5 5 4 4 5 6 6 8 9 9 9 8 9 12 15 16 15 15 14 14 13 13 12 11 10 11 11 11 10 10 10
7 5 4 4 4 3 4 4 3 3 3 4 4 4 4 5 5 5 4 5 6 8 10 10 9 9 11 16 17 16 15 15 14 14 12 11 10 11 11 11 11 10 10
7 5 4 3 4 4 5 5 4 2 2 3 3 3 2 3 4 5 3 4 5 7 8 11 12 12 12 11 15 17 17 16 15 15 13 12 12 11 12 11 11 12 11
9 8 6 3 4 4 4 3 3 3 2 2 2 2 2 2 1 3 4 5 5 5 5 9 12 13 14 14 14 17 18 17 17 16 15 14 13 13 13 13 13 13 13
6 7 6 5 5 4 3 3 4 2 3 2 2 2 2 3 3 2 3 4 5 6 6 7 10 13 14 14 15 18 19 19 18 18 17 16 15 15 15 15 14 14 14
5 6 6 5 5 4 4 5 5 4 3 2 2 2 3 2 2 3 3 2 3 4 5 6 8 10 14 14 14 16 19 19 19 19 19 18 17 17 17 17 17 16 15
3 4 5 5 4 4 5 4 4 5 4 4 3 3 2 2 2 3 3 3 3 3 5 5 6 8 11 13 13 15 17 19 19 19 18 18 18 18 19 18 18 17 16
3 3 4 3 3 4 5 4 3 4 4 4 4 4 4 3 3 3 4 2 3 2 3 3 5 8 9 10 11 13 16 17 18 18 18 18 18 19 18 18 18 18 17
4 4 4 5 5 5 5 4 3 4 4 4 6 5 4 4 4 3 3 2 2 2 3 3 4 7 9 9 10 11 13 15 16 17 17 18 18 18 18 18 18 18 18
4 5 5 5 5 5 5 5 4 5 6 6 5 5 4 4 4 4 3 3 3 2 2 2 3 4 7 8 9 9 10 13 13 15 16 16 16 16 16 17 17 17 17
4 5 5 5 5 4 5 5 4 5 6 5 5 6 5 4 4 4 4 4 4 3 2 2 2 2 5 7 8 8 8 10 10 12 13 13 14 14 14 15 15 15 16
4 5 4 5 5 5 5 4 4 4 5 4 4 5 5 5 4 4 4 4 5 4 4 2 2 2 4 4 5 5 6 7 7 8 10 10 11 11 12 12 12 13 13
4 5 4 4 5 6 5 5 4 5 4 5 5 5 5 5 5 4 4 4 4 4 4 3 2 2 3 2 3 3 4 5 5 6 6 7 7 8 9 9 10 10 11
5 5 5 4 5 5 5 5 4 4 4 5 5 6 5 5 4 3 4 4 3 4 3 3 2 2 2 2 3 3 3 3 3 3 3 4 4 5 6 6 7 8 9
4 4 5 5 5 5 4 4 4 4 5 6 6 6 6 5 4 4 4 3 3 3 3 2 2 2 1 2 2 2 3 2 2 3 2 2 2 2 2 4 5 5 6
4 4 4 5 4 4 4 4 3 5 5 6 6 6 6 8 8 6 5 4 4 3 2 2 2 2 2 2 2 2 2 2 3 2 2 2 1 1 1 1 2 3 4
4 5 4 4 5 4 6 7 5 3 3 5 5 5 5 6 7 9 9 8 7 4 3 2 2 1 2 1 1 2 2 3 3 3 2 3 1 1 2 2 1 1 2
4 5 4 4 5 5 6 6 5 3 3 2 4 4 4 4 5 3 3 4 5 6 5 3 3 2 2 3 2 3 3 2 2 2 2 3 2 2 3 2 2 2 3
5 5 5 5 5 4 6 5 3 2 2 1 2 3 4 4 3 3 3 2 2 2 2 2 2 1 2 3 2 2 2 2 3 2 2 2 3 3 4 3 4 4 4
6 5 5 5 5 4 5 5 3 2 2 1 1 3 4 3 3 4 3 2 1 0 1 2 2 1 2 4 5 3 4 3 3 3 1 0 2 3 3 2 5 6 6
6 6 6 6 6 5 6 6 4 2 3 2 2 3 4 4 4 4 3 2 0 1 1 0 1 2 2 3 3 1 0 1 2 3 2 1 2 3 4 3 3 6 7
Wind_Direction
81 97 102 93 84 85 96 84 69 66 55 55 64 68 74 82 95 96 87 77 71 65 59 54 53 51 48 43 39 37 36 35 33 31 30 31 33 34 32 33 31 25 21
101 87 88 85 80 66 45 67 83 74 68 64 54 60 63 70 93 107 106 89 77 69 61 56 54 51 48 43 39 38 37 36 35 34 32 32 32 30 31 32 31 29 31
69 72 67 84 91 77 59 58 73 75 81 76 60 66 60 55 81 99 108 106 92 77 69 62 57 50 47 45 41 41 39 37 36 35 33 32 32 31 32 32 34 33 35
72 57 51 62 75 72 69 60 52 62 65 67 61 60 63 48 61 82 91 96 99 92 78 70 63 53 47 44 41 41 41 38 38 38 37 35 31 29 29 33 35 37 39
66 70 47 58 76 70 60 72 67 74 79 80 78 65 63 51 49 68 74 72 75 94 92 78 67 58 51 44 41 40 38 38 39 38 37 36 31 29 30 31 33 41 45
49 58 60 69 72 69 60 67 71 75 84 85 90 76 66 65 54 51 56 58 53 67 78 83 76 65 55 47 40 38 37 37 39 38 36 35 33 32 34 36 41 46 52
43 49 52 60 66 84 88 86 76 79 85 97 85 70 51 63 71 58 54 58 51 51 61 66 62 69 61 48 39 37 36 37 37 36 35 38 39 38 39 42 46 52 57
35 50 66 70 69 71 69 74 70 61 60 92 107 111 87 44 47 57 55 61 53 48 53 59 54 62 63 54 41 38 36 36 36 36 38 41 42 42 42 48 54 58 61
35 38 44 61 79 84 90 96 90 76 54 46 83 106 123 127 105 36 58 64 58 48 45 57 54 59 62 55 45 40 39 38 38 39 42 45 47 48 48 53 61 64 66
54 43 44 42 67 73 79 83 84 81 69 42 31 32 82 125 126 101 43 58 61 57 50 55 54 57 62 57 50 44 42 40 40 41 44 48 53 53 54 56 60 66 68
62 52 56 55 62 65 65 62 58 47 58 51 45 39 40 35 75 114 111 78 57 55 58 55 59 59 63 58 52 47 47 45 43 43 44 46 51 53 55 58 61 63 65
68 61 66 63 69 70 70 73 74 62 54 46 42 49 52 57 58 81 105 111 96 77 66 58 62 65 70 62 53 52 51 49 48 46 46 46 49 52 54 55 57 59 59
98 84 73 69 69 77 78 76 82 86 72 57 51 44 43 51 62 74 95 101 105 100 79 63 68 66 70 69 55 56 54 52 52 50 48 48 49 51 52 53 53 54 55
113 105 83 76 70 75 78 64 65 71 76 68 65 56 48 44 49 60 82 98 91 75 70 71 59 64 67 68 53 62 60 56 56 54 51 50 51 52 53 53 52 52 51
117 106 99 90 71 60 60 61 59 62 62 54 59 61 58 51 42 42 46 68 110 106 77 59 55 53 68 70 55 71 71 63 61 60 56 53 54 55 55 54 53 52 50
100 111 121 118 108 90 71 63 63 69 79 69 64 60 52 53 44 37 33 32 58 104 99 79 81 62 54 66 61 72 81 70 63 65 62 57 56 56 56 55 54 52 50
127 121 118 116 116 110 94 76 76 71 79 82 80 80 69 58 51 37 35 41 47 73 95 81 77 78 66 53 46 60 88 91 74 71 68 62 58 57 56 54 53 51 48
128 124 122 115 112 109 105 96 86 77 71 73 71 81 81 70 57 42 43 46 51 63 91 97 65 55 64 61 24 8 61 76 86 78 76 69 65 63 60 57 53 51 46
139 135 130 121 115 113 115 117 111 103 88 76 69 69 70 73 60 52 51 48 44 54 66 89 81 45 40 39 24 2 32 43 52 82 72 62 71 69 62 61 55 51 43
140 137 132 125 117 112 111 118 119 111 105 93 82 76 66 66 58 53 55 45 47 51 52 65 75 52 32 8 29 360 357 350 1 27 41 42 56 65 55 63 56 48 37
137 127 116 116 108 101 87 88 108 115 117 114 107 98 87 83 76 67 64 45 45 45 48 56 52 42 23 18 354 334 351 337 345 17 11 353 358 309 315 65 58 37 25
132 124 119 110 106 97 84 75 68 87 110 122 124 123 121 103 92 82 75 66 60 58 49 49 29 33 358 342 342 355 350 358 336 335 15 332 344 283 249 223 226 315 336
129 122 124 115 111 107 104 93 74 65 67 91 116 124 122 118 118 113 86 70 52 50 61 80 51 13 356 348 13 355 348 346 299 293 21 328 331 332 316 267 253 281 290
142 138 136 135 130 132 133 126 116 116 85 63 87 117 114 108 90 105 111 94 80 56 59 76 87 28 27 10 13 348 320 331 319 332 17 325 322 314 313 300 276 289 287
153 150 149 151 148 156 162 158 147 156 136 132 93 87 107 109 90 108 121 126 117 213 147 154 155 116 13 9 15 19 1 2 333 319 346 13 316 316 300 286 288 286 294
157 155 159 163 165 169 177 177 174 175 169 172 145 113 97 109 99 107 117 121 116 300 311 261 268 274 284 308 333 23 38 353 321 320 329 22 332 348 327 304 314 313 308
Height
1549 1549 1550 1550 1550 1551 1551 1552 1552 1552 1553 1554 1555 1556 1556 1557 1557 1557 1557 1557 1556 1556 1555 1554 1553 1553 1552 1551 1551 1550 1549 1548 1547 1546 1544 1543 1542 1541 1540 1539 1538 1537 1535
1551 1551 1551 1551 1552 1552 1552 1553 1553 1554 1554 1555 1556 1557 1558 1558 1558 1558 1558 1558 1557 1557 1556 1555 1554 1553 1552 1552 1551 1550 1549 1548 1547 1546 1545 1544 1543 1542 1541 1539 1538 1537 1535
1552 1552 1552 1553 1553 1553 1554 1555 1555 1555 1556 1557 1558 1559 1559 1560 1560 1560 1559 1559 1558 1558 1557 1556 1555 1554 1553 1552 1551 1550 1549 1548 1547 1546 1545 1544 1543 1542 1541 1539 1538 1537 1536
1553 1553 1554 1554 1554 1555 1556 1556 1557 1557 1558 1559 1560 1560 1561 1561 1562 1561 1561 1560 1560 1559 1558 1557 1556 1555 1554 1553 1552 1551 1550 1549 1547 1546 1545 1544 1543 1542 1541 1540 1538 1537 1536
1555 1555 1555 1555 1556 1556 1557 1558 1558 1559 1560 1561 1561 1562 1562 1563 1563 1563 1563 1562 1562 1561 1560 1559 1557 1556 1555 1554 1553 1551 1550 1549 1548 1546 1545 1544 1543 1541 1540 1539 1538 1537 1537
1556 1556 1557 1557 1557 1557 1558 1559 1560 1561 1562 1562 1563 1564 1564 1564 1565 1564 1564 1564 1563 1562 1561 1560 1559 1557 1556 1555 1553 1552 1551 1549 1548 1546 1544 1543 1542 1541 1540 1539 1538 1537 1537
1557 1557 1558 1558 1558 1559 1559 1560 1561 1562 1563 1564 1564 1565 1566 1566 1566 1566 1566 1565 1565 1564 1563 1561 1560 1559 1557 1556 1554 1553 1551 1550 1547 1545 1543 1542 1541 1540 1539 1538 1537 1537 1538
1558 1559 1559 1559 1559 1560 1560 1561 1562 1563 1564 1565 1566 1566 1567 1569 1568 1568 1567 1567 1566 1565 1564 1563 1562 1560 1558 1557 1555 1554 1552 1550 1547 1544 1542 1541 1540 1540 1538 1537 1536 1536 1538
1559 1559 1560 1560 1561 1561 1561 1562 1563 1564 1565 1566 1566 1567 1567 1568 1569 1570 1569 1569 1568 1567 1566 1565 1564 1562 1560 1558 1556 1555 1553 1551 1548 1545 1543 1541 1540 1540 1538 1537 1537 1537 1538
1560 1561 1561 1561 1562 1562 1563 1563 1564 1565 1566 1566 1567 1567 1568 1568 1569 1570 1571 1570 1570 1569 1568 1566 1565 1563 1562 1560 1558 1557 1555 1553 1550 1547 1544 1543 1542 1541 1540 1539 1539 1539 1541
1562 1562 1562 1562 1563 1563 1563 1564 1565 1565 1566 1567 1568 1568 1569 1569 1570 1570 1571 1572 1571 1570 1570 1568 1567 1565 1563 1562 1560 1559 1557 1555 1553 1550 1548 1546 1545 1544 1543 1543 1542 1543 1544
1563 1563 1563 1564 1564 1564 1564 1565 1565 1566 1567 1567 1568 1569 1569 1570 1570 1570 1571 1572 1572 1572 1571 1570 1569 1567 1566 1564 1563 1561 1559 1557 1555 1553 1551 1549 1548 1547 1547 1546 1546 1547 1547
1564 1565 1565 1565 1565 1566 1566 1566 1567 1567 1568 1568 1569 1570 1570 1571 1571 1571 1572 1572 1573 1573 1573 1572 1571 1569 1568 1566 1564 1563 1561 1559 1558 1556 1554 1553 1551 1550 1550 1549 1549 1550 1550
1565 1566 1566 1566 1567 1567 1567 1568 1568 1568 1569 1569 1570 1570 1571 1571 1572 1572 1573 1573 1573 1574 1574 1574 1573 1571 1570 1568 1566 1565 1563 1562 1560 1558 1557 1556 1555 1554 1553 1552 1552 1551 1551
1567 1567 1567 1567 1568 1568 1568 1569 1569 1569 1570 1570 1571 1571 1572 1572 1573 1573 1574 1574 1575 1574 1575 1575 1574 1573 1571 1570 1568 1567 1565 1564 1562 1560 1559 1558 1557 1556 1555 1554 1554 1553 1552
1567 1568 1568 1568 1569 1569 1570 1570 1570 1571 1571 1572 1572 1572 1573 1573 1574 1574 1574 1574 1574 1575 1575 1575 1575 1574 1573 1572 1570 1569 1567 1566 1564 1562 1561 1559 1558 1557 1556 1556 1555 1554 1553
1568 1568 1569 1570 1570 1570 1571 1571 1572 1572 1572 1573 1573 1573 1574 1574 1574 1575 1575 1575 1575 1575 1575 1576 1575 1575 1574 1572 1571 1570 1568 1567 1565 1564 1562 1561 1559 1558 1557 1556 1556 1555 1554
1568 1569 1570 1570 1571 1571 1572 1572 1573 1573 1574 1574 1574 1574 1574 1575 1575 1575 1575 1575 1576 1576 1576 1575 1575 1575 1574 1573 1572 1570 1569 1568 1566 1565 1563 1562 1560 1559 1558 1557 1556 1555 1554
1568 1569 1570 1571 1572 1572 1573 1573 1574 1574 1575 1575 1575 1575 1575 1575 1575 1576 1576 1576 1576 1576 1576 1576 1576 1575 1574 1573 1572 1571 1569 1568 1566 1565 1563 1562 1561 1559 1558 1557 1556 1555 1554
1568 1569 1570 1571 1572 1573 1574 1574 1575 1575 1575 1576 1576 1576 1576 1576 1576 1577 1577 1577 1577 1577 1577 1576 1576 1575 1574 1573 1572 1571 1569 1568 1566 1564 1563 1562 1560 1559 1558 1557 1556 1555 1553
1567 1569 1570 1571 1572 1573 1574 1575 1575 1576 1576 1577 1577 1577 1577 1577 1577 1577 1577 1577 1577 1577 1577 1577 1576 1575 1574 1573 1572 1570 1569 1567 1566 1564 1563 1561 1560 1559 1557 1556 1555 1554 1552
1566 1568 1569 1570 1572 1572 1574 1575 1575 1576 1577 1577 1577 1577 1577 1578 1578 1578 1578 1578 1578 1577 1577 1576 1576 1575 1574 1573 1572 1570 1568 1566 1564 1564 1562 1561 1559 1558 1556 1555 1554 1553 1551
1565 1566 1568 1569 1571 1572 1573 1574 1575 1576 1576 1577 1577 1577 1577 1577 1578 1578 1578 1578 1577 1577 1577 1577 1575 1574 1574 1572 1571 1569 1567 1566 1564 1563 1561 1559 1558 1556 1556 1554 1553 1552 1550
1563 1565 1567 1568 1570 1571 1572 1573 1574 1575 1576 1576 1577 1577 1577 1577 1577 1577 1577 1577 1577 1576 1576 1576 1575 1574 1573 1572 1570 1569 1566 1565 1563 1562 1560 1558 1556 1555 1554 1553 1551 1550 1548
1561 1563 1565 1566 1568 1569 1571 1572 1573 1573 1574 1575 1576 1576 1576 1576 1576 1577 1576 1576 1576 1575 1575 1575 1574 1573 1572 1571 1569 1567 1565 1563 1561 1560 1559 1557 1554 1552 1551 1550 1549 1547 1545
1559 1561 1563 1565 1566 1568 1569 1570 1571 1572 1572 1573 1574 1575 1575 1575 1575 1575 1575 1575 1574 1574 1574 1573 1572 1571 1570 1569 1567 1565 1563 1562 1559 1558 1557 1555 1553 1551 1548 1547 1545 1544 1541